Weather History for KSJT - June, 2013

Change the Weather History Date:

Tuesday, June 18, 2013

  Actual Average Record
Temperature  
Mean Temperature 79 °F 81 °F  
Max Temperature 90 °F 93 °F 108 °F (1908)
Min Temperature 67 °F 69 °F 42 °F (1912)
Degree Days  
Heating Degree Days 0 0  
Month to date heating degree days 0 0  
Since 1 June heating degree days 0 0  
Since 1 July heating degree days 1919 2316  
Cooling Degree Days 14 16  
Month to date cooling degree days 299 264  
Year to date cooling degree days 895 724  
Since 1 June cooling degree days 299 264  
Growing Degree Days 28 (Base 50)    
Moisture  
Dew Point 65 °F    
Average Humidity 67    
Maximum Humidity 93    
Minimum Humidity 41    
Precipitation  
Precipitation T in 0.08 in 1.50 in (1912)
Month to date precipitation 1.34 1.78  
Year to date precipitation 7.72 9.80  
Sea Level Pressure  
Sea Level Pressure 29.96 in    
Wind  
Wind Speed 7 mph (NE)    
Max Wind Speed 23 mph    
Max Gust Speed 26 mph    
Visibility 9 miles    
Events Rain , Thunderstorm    
T = Trace of Precipitation, MM = Missing Value Source: NWS Daily Summary

Daily Weather History Graph

Daily Weather History Graph

Search for Another Location

Airport or City:

Trip Planner

Search our weather history database for the weather conditions in past years. The results will help you decide how hot, cold, wet, or windy it might be!

Date:

Astronomy

Jun. 18, 2013 Rise Set
Actual Time 6:37 AM CDT 8:48 PM CDT
Civil Twilight 6:09 AM CDT 9:16 PM CDT
Nautical Twilight 5:35 AM CDT 9:51 PM CDT
Astronomical Twilight 4:58 AM CDT 10:27 PM CDT
Moon 3:49 PM CDT (6/18) 2:30 AM CDT (6/18)
Length of Visible Light 15h 07m
Length of Day
14h 11m
Waxing Gibbous, 71% of the Moon is Illuminated
Jun 18
Waxing Gibbous
Jun 23
Full
Jun 29
Last Quarter
Jul 8
New
Jul 15
First Quarter

Hourly Weather History & Observations

Time (CDT) Temp. Heat Index Dew Point Humidity Pressure Visibility Wind Dir Wind Speed Gust Speed Precip Events Conditions
12:37 AM 68.0 °F - 64.4 °F 88% 30.09 in 2.0 mi North 17.3 mph 28.8 mph 0.19 in Rain , Thunderstorm Heavy Thunderstorms and Rain
12:41 AM 68.0 °F - 64.4 °F 88% 30.09 in 1.8 mi NNE 20.7 mph - 0.29 in Rain , Thunderstorm Heavy Thunderstorms and Rain
12:45 AM 68.0 °F - 66.2 °F 94% 30.09 in 3.0 mi NNE 20.7 mph - 0.32 in Rain , Thunderstorm Thunderstorms and Rain
12:51 AM 68.0 °F - 64.9 °F 90% 30.02 in 8.0 mi NNE 23.0 mph 28.8 mph 0.33 in Rain , Thunderstorm Light Thunderstorms and Rain
1:22 AM 68.0 °F - 62.6 °F 83% 30.04 in 10.0 mi ENE 17.3 mph 25.3 mph 0.00 in   Clear
1:51 AM 69.1 °F - 63.0 °F 81% 29.96 in 10.0 mi East 9.2 mph - 0.00 in   Scattered Clouds
2:51 AM 69.1 °F - 64.0 °F 84% 29.96 in 10.0 mi North 5.8 mph - N/A   Overcast
3:51 AM 68.0 °F - 64.9 °F 90% 29.90 in 10.0 mi South 5.8 mph - N/A   Clear
4:51 AM 69.1 °F - 64.9 °F 87% 29.92 in 10.0 mi NW 6.9 mph - N/A   Clear
5:51 AM 68.0 °F - 64.9 °F 90% 29.96 in 10.0 mi North 4.6 mph - N/A   Clear
6:51 AM 66.9 °F - 64.9 °F 93% 29.95 in 10.0 mi SE 3.5 mph - N/A   Clear
7:51 AM 70.0 °F - 66.0 °F 87% 29.98 in 10.0 mi North 4.6 mph - N/A   Clear
8:51 AM 71.1 °F - 66.0 °F 84% 30.02 in 10.0 mi NNE 5.8 mph - N/A   Mostly Cloudy
9:51 AM 75.0 °F - 66.0 °F 73% 30.01 in 10.0 mi NE 6.9 mph - N/A   Clear
10:51 AM 77.0 °F - 66.9 °F 71% 30.01 in 10.0 mi NE 10.4 mph - N/A   Mostly Cloudy
11:51 AM 78.1 °F - 66.9 °F 68% 30.00 in 10.0 mi NE 6.9 mph - N/A   Clear
12:51 PM 81.0 °F 83.3 °F 66.9 °F 62% 29.99 in 10.0 mi East 8.1 mph - N/A   Clear
1:51 PM 84.0 °F 86.5 °F 66.9 °F 56% 29.99 in 10.0 mi ENE 8.1 mph - N/A   Clear
2:51 PM 87.1 °F 88.9 °F 64.9 °F 48% 29.96 in 10.0 mi Variable 6.9 mph - N/A   Clear
3:51 PM 88.0 °F 89.3 °F 64.0 °F 45% 29.94 in 10.0 mi NE 4.6 mph - N/A   Clear
4:51 PM 89.1 °F 90.3 °F 64.0 °F 43% 29.91 in 10.0 mi NE 8.1 mph - N/A   Clear
5:51 PM 90.0 °F 90.6 °F 63.0 °F 40% 29.89 in 10.0 mi NE 8.1 mph - N/A   Clear
6:51 PM 90.0 °F 91.3 °F 64.0 °F 42% 29.87 in 10.0 mi NE 6.9 mph - N/A   Clear
7:51 PM 88.0 °F 88.7 °F 63.0 °F 43% 29.87 in 10.0 mi NE 6.9 mph - N/A   Clear
8:51 PM 84.0 °F 85.8 °F 64.9 °F 53% 29.88 in 10.0 mi NE 5.8 mph - N/A   Clear
9:51 PM 81.0 °F 83.0 °F 66.0 °F 60% 29.88 in 10.0 mi ENE 5.8 mph - N/A   Clear
10:51 PM 79.0 °F - 68.0 °F 69% 29.89 in 10.0 mi East 4.6 mph - N/A   Clear
11:51 PM 79.0 °F - 64.9 °F 62% 29.90 in 10.0 mi SE 5.8 mph - N/A   Mostly Cloudy